Location: Newark
(35.2672°N, 80.7344°W)
Time: 19:35:20
(UTC+00:00)

Transit 2A Rocket - Pass Details

Date: 02 February 2020
Orbit: 591 x 912 km, 66.7° (Epoch: 23 February)

Event Time Altitude Azimuth Distance (km) Brightness Sun altitude
Rises 17:14:54 0° 340° (NNW) 3,080 7.7 37.7°
Reaches altitude 10° 17:17:14 10° 346° (NNW) 2,209 7.0 37.7°
Maximum altitude 17:22:06 46° 60° (ENE) 1,020 5.9 37.8°
Drops below altitude 10° 17:27:24 10° 133° (SE) 2,405 8.3 37.9°
Sets 17:30:02 0° 139° (SE) 3,383 8.9 37.9°
